TimeEDT,TemperatureF,Dew PointF,Humidity,Sea Level PressureIn,VisibilityMPH,Wind Direction,Wind SpeedMPH,Gust SpeedMPH,PrecipitationIn,Events,Conditions,WindDirDegrees,DateUTC
12:10 AM,51.8,46.4,82,29.64,10.0,South,9.2,-,N/A,,Overcast,180,2012-10-01 04:10:00
12:53 AM,52.0,48.0,86,29.63,10.0,SSW,5.8,-,N/A,,Overcast,200,2012-10-01 04:53:00
1:53 AM,52.0,48.9,89,29.63,10.0,South,6.9,-,0.00,,Overcast,190,2012-10-01 05:53:00
2:18 AM,51.8,48.2,88,29.63,10.0,South,8.1,-,N/A,,Overcast,180,2012-10-01 06:18:00
2:53 AM,52.0,48.9,89,29.61,10.0,South,9.2,-,N/A,,Overcast,180,2012-10-01 06:53:00
3:53 AM,52.0,48.0,86,29.61,10.0,South,10.4,-,N/A,,Mostly Cloudy,180,2012-10-01 07:53:00
4:53 AM,52.0,48.0,86,29.61,10.0,South,9.2,-,0.01,Rain,Light Rain,180,2012-10-01 08:53:00
5:53 AM,52.0,48.0,86,29.60,10.0,South,9.2,-,0.01,Rain,Light Rain,180,2012-10-01 09:53:00
6:53 AM,52.0,48.0,86,29.60,9.0,South,10.4,-,0.01,Rain,Light Rain,180,2012-10-01 10:53:00
7:53 AM,53.1,48.0,83,29.60,10.0,South,11.5,-,0.01,,Overcast,180,2012-10-01 11:53:00
8:53 AM,54.0,48.9,83,29.62,10.0,South,11.5,-,N/A,,Overcast,180,2012-10-01 12:53:00
9:53 AM,55.9,50.0,80,29.63,10.0,South,8.1,-,N/A,,Overcast,190,2012-10-01 13:53:00
10:20 AM,57.2,50.0,77,29.65,10.0,SSW,9.2,-,N/A,,Overcast,200,2012-10-01 14:20:00
10:53 AM,57.9,48.9,72,29.65,10.0,SSW,8.1,-,N/A,,Overcast,200,2012-10-01 14:53:00
11:53 AM,60.1,48.9,67,29.66,10.0,West,8.1,-,N/A,,Overcast,270,2012-10-01 15:53:00
12:53 PM,61.0,50.0,67,29.69,10.0,SW,4.6,-,N/A,,Overcast,230,2012-10-01 16:53:00
2:39 PM,62.6,50.0,63,29.72,10.0,West,5.8,-,N/A,,Overcast,270,2012-10-01 18:39:00
2:53 PM,62.1,50.0,65,29.73,10.0,West,6.9,-,N/A,,Overcast,260,2012-10-01 18:53:00
3:08 PM,62.6,50.0,63,29.73,10.0,West,10.4,-,N/A,,Overcast,270,2012-10-01 19:08:00
3:53 PM,62.1,50.0,65,29.75,10.0,WSW,10.4,-,N/A,,Overcast,250,2012-10-01 19:53:00
4:53 PM,61.0,51.1,70,29.78,10.0,WSW,3.5,-,N/A,,Overcast,250,2012-10-01 20:53:00
5:37 PM,59.0,53.6,82,29.81,10.0,Calm,Calm,-,N/A,,Overcast,0,2012-10-01 21:37:00
5:53 PM,59.0,53.1,81,29.81,10.0,Calm,Calm,-,N/A,,Overcast,0,2012-10-01 21:53:00
6:53 PM,57.0,54.0,89,29.83,10.0,Calm,Calm,-,N/A,,Overcast,0,2012-10-01 22:53:00
7:53 PM,55.9,53.1,90,29.85,10.0,Calm,Calm,-,N/A,,Overcast,0,2012-10-01 23:53:00
8:53 PM,55.9,53.1,90,29.88,10.0,South,3.5,-,N/A,,Overcast,170,2012-10-02 00:53:00
9:53 PM,54.0,52.0,93,29.88,10.0,Calm,Calm,-,N/A,,Overcast,0,2012-10-02 01:53:00
11:37 PM,48.2,46.4,93,29.91,1.5,Calm,Calm,-,N/A,,Clear,0,2012-10-02 03:37:00
11:58 PM,48.2,46.4,93,29.90,3.0,Calm,Calm,-,N/A,,Clear,0,2012-10-02 03:58:00